TimeEST,TemperatureF,Dew PointF,Humidity,Sea Level PressureIn,VisibilityMPH,Wind Direction,Wind SpeedMPH,Gust SpeedMPH,PrecipitationIn,Events,Conditions,WindDirDegrees,DateUTC
12:15 AM,53.6,48.2,82,30.16,10.0,Calm,Calm,-,N/A,,Clear,0,2012-12-05 05:15:00
12:35 AM,53.6,48.2,82,30.15,10.0,Calm,Calm,-,N/A,,Clear,0,2012-12-05 05:35:00
12:55 AM,53.6,48.2,82,30.15,10.0,Calm,Calm,-,N/A,,Scattered Clouds,0,2012-12-05 05:55:00
1:15 AM,53.6,48.2,82,30.15,10.0,Calm,Calm,-,N/A,,Scattered Clouds,0,2012-12-05 06:15:00
1:35 AM,53.6,48.2,82,30.14,10.0,SE,3.5,-,N/A,,Mostly Cloudy,130,2012-12-05 06:35:00
1:55 AM,53.6,48.2,82,30.14,10.0,Calm,Calm,-,N/A,,Overcast,0,2012-12-05 06:55:00
2:15 AM,53.6,48.2,82,30.14,10.0,East,3.5,-,N/A,,Mostly Cloudy,100,2012-12-05 07:15:00
2:55 AM,53.6,48.2,82,30.13,10.0,Calm,Calm,-,N/A,,Mostly Cloudy,0,2012-12-05 07:55:00
3:15 AM,53.6,48.2,82,30.13,10.0,Calm,Calm,-,N/A,,Overcast,0,2012-12-05 08:15:00
3:35 AM,53.6,48.2,82,30.13,10.0,Calm,Calm,-,N/A,,Overcast,0,2012-12-05 08:35:00
3:55 AM,55.4,50.0,82,30.12,10.0,Calm,Calm,-,N/A,,Overcast,0,2012-12-05 08:55:00
4:15 AM,57.2,50.0,77,30.12,10.0,SSW,4.6,-,N/A,,Overcast,200,2012-12-05 09:15:00
4:35 AM,59.0,51.8,77,30.12,10.0,Calm,Calm,-,N/A,,Overcast,0,2012-12-05 09:35:00
4:55 AM,59.0,51.8,77,30.12,10.0,Calm,Calm,-,N/A,,Overcast,0,2012-12-05 09:55:00
5:15 AM,57.2,50.0,77,30.12,10.0,Calm,Calm,-,N/A,,Overcast,0,2012-12-05 10:15:00
5:35 AM,55.4,50.0,82,30.12,10.0,Calm,Calm,-,N/A,,Overcast,0,2012-12-05 10:35:00
5:55 AM,55.4,50.0,82,30.12,10.0,Calm,Calm,-,N/A,,Overcast,0,2012-12-05 10:55:00
6:15 AM,55.4,50.0,82,30.13,10.0,Calm,Calm,-,N/A,,Mostly Cloudy,0,2012-12-05 11:15:00
6:35 AM,57.2,51.8,82,30.14,10.0,Calm,Calm,-,N/A,Rain,Light Rain,0,2012-12-05 11:35:00
6:55 AM,55.4,51.8,88,30.14,10.0,Calm,Calm,-,N/A,,Overcast,0,2012-12-05 11:55:00
7:15 AM,53.6,53.6,100,30.15,10.0,Calm,Calm,-,N/A,Rain,Light Rain,0,2012-12-05 12:15:00
7:35 AM,55.4,53.6,94,30.15,10.0,Calm,Calm,-,N/A,,Overcast,0,2012-12-05 12:35:00
7:55 AM,53.6,53.6,100,30.15,10.0,Calm,Calm,-,N/A,,Light Drizzle,0,2012-12-05 12:55:00
9:35 AM,59.0,48.2,67,30.21,10.0,NW,9.2,-,N/A,Rain,Light Rain,320,2012-12-05 14:35:00
9:55 AM,59.0,44.6,59,30.22,10.0,NNW,11.5,19.6,N/A,,Mostly Cloudy,330,2012-12-05 14:55:00
10:15 AM,59.0,44.6,59,30.22,10.0,NNW,9.2,-,N/A,,Mostly Cloudy,340,2012-12-05 15:15:00
10:35 AM,59.0,44.6,59,30.22,10.0,NW,6.9,-,N/A,Rain,Light Rain,320,2012-12-05 15:35:00
10:55 AM,60.8,42.8,52,30.22,10.0,NNW,8.1,-,N/A,,Mostly Cloudy,330,2012-12-05 15:55:00
11:15 AM,60.8,41.0,48,30.22,10.0,NNW,11.5,-,N/A,,Mostly Cloudy,330,2012-12-05 16:15:00
11:35 AM,60.8,39.2,45,30.21,10.0,NNW,9.2,-,N/A,,Overcast,330,2012-12-05 16:35:00
11:55 AM,59.0,37.4,45,30.21,10.0,NNW,5.8,-,N/A,,Overcast,340,2012-12-05 16:55:00
12:15 PM,59.0,35.6,42,30.20,10.0,NNW,8.1,-,N/A,,Mostly Cloudy,340,2012-12-05 17:15:00
12:35 PM,59.0,35.6,42,30.19,10.0,NW,10.4,-,N/A,,Scattered Clouds,320,2012-12-05 17:35:00
12:55 PM,60.8,30.2,31,30.19,10.0,NNW,9.2,16.1,N/A,,Clear,330,2012-12-05 17:55:00
1:15 PM,60.8,28.4,29,30.19,10.0,NNW,10.4,-,N/A,,Clear,340,2012-12-05 18:15:00
1:35 PM,60.8,28.4,29,30.19,10.0,NNW,5.8,-,N/A,,Clear,340,2012-12-05 18:35:00
1:55 PM,60.8,26.6,27,30.19,10.0,NNW,5.8,-,N/A,,Clear,340,2012-12-05 18:55:00
2:15 PM,60.8,28.4,29,30.18,10.0,NNW,3.5,-,N/A,,Clear,340,2012-12-05 19:15:00
2:35 PM,62.6,28.4,27,30.17,10.0,NW,8.1,-,N/A,,Clear,320,2012-12-05 19:35:00
3:15 PM,64.4,24.8,22,30.17,10.0,NNW,8.1,-,N/A,,Clear,340,2012-12-05 20:15:00
3:35 PM,64.4,24.8,22,30.17,10.0,NNW,8.1,-,N/A,,Clear,330,2012-12-05 20:35:00
3:55 PM,62.6,23.0,22,30.18,10.0,NW,10.4,-,N/A,,Clear,320,2012-12-05 20:55:00
4:15 PM,62.6,24.8,24,30.19,10.0,NW,8.1,-,N/A,,Clear,310,2012-12-05 21:15:00
4:35 PM,59.0,24.8,27,30.19,10.0,NW,5.8,-,N/A,,Clear,310,2012-12-05 21:35:00
4:55 PM,55.4,24.8,31,30.19,10.0,NW,5.8,-,N/A,,Clear,310,2012-12-05 21:55:00
5:15 PM,53.6,24.8,33,30.19,10.0,NW,3.5,-,N/A,,Clear,310,2012-12-05 22:15:00
5:35 PM,51.8,24.8,35,30.20,10.0,Calm,Calm,-,N/A,,Clear,0,2012-12-05 22:35:00
5:55 PM,51.8,24.8,35,30.21,10.0,Calm,Calm,-,N/A,,Clear,0,2012-12-05 22:55:00
6:15 PM,51.8,24.8,35,30.21,10.0,Calm,Calm,-,N/A,,Clear,0,2012-12-05 23:15:00
6:35 PM,46.4,26.6,46,30.21,10.0,NW,4.6,-,N/A,,Clear,310,2012-12-05 23:35:00
6:55 PM,44.6,26.6,49,30.22,10.0,Calm,Calm,-,N/A,,Clear,0,2012-12-05 23:55:00
7:15 PM,44.6,26.6,49,30.22,10.0,Calm,Calm,-,N/A,,Clear,0,2012-12-06 00:15:00
7:35 PM,42.8,26.6,53,30.22,10.0,NW,3.5,-,N/A,,Clear,310,2012-12-06 00:35:00
7:55 PM,42.8,24.8,49,30.23,10.0,Calm,Calm,-,N/A,,Clear,0,2012-12-06 00:55:00
8:15 PM,41.0,26.6,57,30.23,10.0,WNW,3.5,-,N/A,,Clear,300,2012-12-06 01:15:00
8:35 PM,41.0,26.6,57,30.23,10.0,NW,4.6,-,N/A,,Clear,310,2012-12-06 01:35:00
8:55 PM,35.6,28.4,75,30.24,10.0,Calm,Calm,-,N/A,,Clear,0,2012-12-06 01:55:00
9:15 PM,35.6,28.4,75,30.24,10.0,Calm,Calm,-,N/A,,Clear,0,2012-12-06 02:15:00
9:35 PM,35.6,26.6,70,30.24,10.0,Calm,Calm,-,N/A,,Clear,0,2012-12-06 02:35:00